Wind_Speed
3 4 5 6 7 8 9 9 9 9 10 11 11 12 13 14 15 16 17 18 18 19 20 20 20 21 21 21 21 21 21 22 22 22 23 23 24 24 25 25 25 25 26 26 26 26 26 26 26 26 27 27 27 27 28 28 28 28 29 29 29 30 30 30 30 31 31 32 32
3 3 4 5 6 7 8 8 8 9 10 10 11 12 14 15 16 17 18 19 19 20 20 21 21 21 21 21 21 21 22 22 22 23 23 24 25 25 25 26 26 26 26 26 26 26 26 26 26 27 27 27 27 27 27 27 27 28 29 29 30 30 30 30 30 31 31 31 32
3 4 4 5 6 6 7 8 9 10 10 11 12 13 15 16 17 18 19 19 19 20 20 20 21 21 21 22 22 22 22 22 23 24 24 25 25 25 25 26 26 26 26 27 27 27 27 26 26 26 27 26 26 26 27 27 27 27 28 29 29 29 29 29 29 29 30 30 30
3 4 5 6 7 7 8 9 10 11 12 13 14 15 16 17 18 18 19 19 19 20 20 21 21 22 22 22 22 23 23 23 23 24 24 25 25 26 26 26 27 27 27 27 27 27 27 26 26 26 26 26 26 26 26 26 26 27 27 28 28 28 27 28 28 28 28 28 29
4 5 6 7 8 8 9 10 11 13 14 15 16 17 17 18 18 18 19 19 20 20 21 21 22 23 23 23 23 23 23 23 24 24 25 25 26 26 26 27 27 27 27 27 27 27 26 26 26 26 26 25 25 25 26 26 26 26 26 27 26 26 26 27 27 27 27 27 28
6 7 7 8 8 9 10 11 12 14 15 16 17 18 18 18 18 19 20 20 21 22 22 22 23 23 23 23 23 23 24 24 24 24 25 25 26 26 27 27 27 27 27 27 27 26 26 26 26 26 26 25 25 25 25 25 25 25 26 26 26 25 26 26 26 26 26 27 27
7 8 8 8 9 10 11 12 14 15 16 17 18 18 19 19 19 20 21 21 22 23 23 22 22 22 23 23 23 24 24 24 24 25 25 25 26 26 27 27 27 27 27 27 26 26 26 26 26 26 26 25 25 25 25 24 25 25 25 26 25 25 25 26 26 26 26 27 27
8 8 8 9 10 11 13 14 15 16 17 18 19 19 20 20 20 21 21 22 22 22 22 22 22 22 23 23 24 24 25 25 25 25 25 25 26 26 27 27 27 27 26 26 26 26 26 26 26 26 26 26 26 26 25 25 25 25 26 27 27 26 26 26 26 26 26 27 28
8 8 9 10 11 13 14 15 16 17 18 19 19 19 20 20 21 21 22 22 22 22 22 22 22 23 23 24 24 24 25 25 25 25 26 26 26 26 26 26 27 27 27 27 27 27 27 27 27 27 27 27 27 27 27 26 26 27 28 28 29 29 29 28 28 28 29 29 29
8 9 10 11 13 14 15 16 16 17 18 19 19 20 20 20 20 21 21 22 22 22 22 23 23 23 24 24 24 25 25 25 25 25 26 26 26 26 26 27 27 27 28 28 28 28 28 28 28 28 28 28 28 28 28 27 27 28 28 29 29 29 30 30 30 30 31 31 31
9 10 11 12 13 14 15 16 17 18 18 19 19 20 20 20 20 21 21 22 22 23 23 23 23 24 24 24 25 25 25 25 25 25 25 26 26 26 27 27 28 28 29 29 29 29 29 28 28 28 28 28 28 28 28 27 27 28 28 28 29 29 30 30 30 30 30 30 31
10 11 12 13 14 15 15 16 17 18 18 19 19 19 20 20 20 21 22 22 23 23 23 23 23 24 24 24 25 25 25 25 25 25 25 26 26 27 28 28 29 29 30 30 29 29 29 28 29 29 29 29 28 28 28 28 28 28 29 29 29 30 30 31 31 30 29 29 29
11 12 13 13 14 15 16 16 17 18 18 19 19 19 20 21 21 22 22 23 23 23 24 24 23 23 24 24 24 24 24 25 25 25 26 27 27 28 28 29 29 30 30 30 30 29 29 29 29 29 30 30 30 29 29 29 29 29 30 30 31 31 31 31 31 31 30 30 30
11 12 13 14 14 15 16 17 17 18 18 19 19 20 21 22 22 22 22 23 23 24 24 24 24 24 23 24 24 24 25 25 26 26 27 27 28 28 29 29 29 30 30 30 30 30 30 30 30 30 31 31 31 31 31 30 30 30 31 31 31 32 32 32 32 31 30 30 31
12 12 13 14 14 15 16 17 18 18 19 20 20 21 22 22 23 23 23 23 23 24 24 24 24 24 24 24 24 25 25 26 26 27 27 28 28 28 29 29 30 30 30 30 31 31 31 31 31 31 31 31 31 32 31 31 31 31 32 32 32 32 33 32 32 31 31 31 31
12 12 13 14 15 15 16 17 18 19 20 21 21 22 22 23 23 23 23 23 23 24 24 24 24 25 25 25 25 25 26 26 27 27 28 28 28 29 29 29 30 31 31 32 32 32 32 32 31 31 31 31 32 32 32 32 32 32 32 33 33 33 33 33 32 32 32 32 32
12 12 13 14 15 16 17 18 19 20 21 22 22 22 23 23 23 23 23 23 24 24 24 24 25 25 26 26 26 26 27 27 27 27 28 28 29 29 30 31 31 32 32 33 33 33 33 33 32 31 31 31 32 32 32 33 33 33 33 33 33 33 33 33 32 32 32 32 32
12 13 14 15 16 17 18 20 20 21 22 22 23 23 23 23 23 24 24 24 24 24 25 25 25 26 26 27 27 27 27 27 28 28 28 29 30 30 31 32 32 33 33 33 33 34 34 34 33 32 31 31 32 32 32 33 33 34 34 34 34 34 34 33 33 32 32 31 31
13 14 15 16 17 18 19 20 21 22 22 23 23 23 23 23 24 24 24 24 24 24 25 26 26 27 27 27 27 28 28 28 28 29 29 30 31 31 32 32 33 33 33 33 34 34 34 34 33 33 32 32 32 33 33 33 33 34 34 34 34 34 33 33 33 32 31 30 31
13 15 16 17 18 19 20 21 22 22 23 23 23 23 24 24 24 24 24 25 25 25 25 26 27 27 28 28 28 28 28 29 29 30 30 31 31 32 32 33 33 33 33 33 33 34 34 34 33 33 33 33 33 33 33 33 33 33 33 33 33 33 33 33 32 31 31 31 31
14 15 17 18 19 20 21 21 22 22 23 23 23 23 24 24 24 24 25 25 25 26 26 27 27 28 28 28 29 29 29 29 30 30 31 31 32 32 32 32 32 33 33 33 33 33 33 33 33 33 33 33 33 33 33 33 33 33 33 33 33 32 32 31 31 30 30 30 31
15 16 18 19 19 20 21 22 22 22 23 23 23 23 23 24 24 24 25 25 26 26 26 27 27 28 28 29 29 30 30 30 30 30 31 31 32 32 32 32 32 32 32 33 33 33 33 33 33 33 33 33 33 33 33 33 33 33 33 33 32 32 31 30 30 29 29 29 30
16 17 18 19 20 21 21 22 22 22 22 23 23 23 24 24 24 25 25 25 26 26 27 27 27 28 28 29 30 30 31 31 31 31 31 31 31 32 32 31 32 32 32 32 32 32 32 32 32 32 31 31 32 32 32 32 32 33 33 32 32 31 30 30 29 28 28 28 28
17 18 19 20 21 21 22 22 22 22 22 23 23 24 24 24 25 25 25 26 26 27 27 27 28 28 29 29 30 30 30 31 31 32 32 31 31 31 32 31 31 31 31 32 32 31 30 30 30 30 30 30 31 32 32 32 31 31 31 31 31 31 30 30 29 28 28 28 28
18 19 20 21 21 22 22 22 22 22 23 23 23 24 24 25 25 25 26 26 27 27 28 28 29 29 29 29 29 29 29 30 30 31 32 32 32 32 32 32 31 31 31 31 31 30 28 27 28 29 30 31 31 32 32 31 31 30 30 29 30 30 30 30 30 29 28 28 28
19 20 20 21 21 22 22 22 22 22 23 23 24 24 24 25 25 26 26 27 27 28 28 28 29 29 29 28 29 29 29 29 30 31 31 32 32 33 32 32 31 31 31 31 30 28 27 28 28 29 30 31 31 31 31 31 31 31 30 29 29 29 29 29 29 29 29 28 28
19 20 21 21 21 21 21 22 22 23 23 23 24 24 25 25 26 26 27 27 27 28 28 28 28 28 28 28 28 29 29 30 30 31 32 32 32 32 32 31 31 31 31 31 29 28 28 29 30 30 30 30 31 31 32 32 31 31 30 28 28 28 27 28 29 29 29 29 29
19 20 20 21 21 21 22 23 23 23 23 24 24 24 25 25 26 26 27 27 28 28 28 28 28 28 28 28 29 29 30 31 31 31 31 31 31 31 31 31 31 31 31 30 29 29 30 30 30 30 30 30 30 31 31 30 30 29 27 26 26 26 26 26 27 28 30 30 30
19 20 20 20 21 22 23 23 23 23 23 24 24 25 25 26 26 27 27 28 28 28 28 28 28 28 28 29 29 30 31 31 31 31 31 31 31 31 31 31 31 31 31 30 29 30 30 30 30 30 30 29 29 29 29 28 28 27 27 26 26 26 27 27 29 30 30 30 30
19 19 20 21 22 22 23 23 23 23 24 24 24 25 26 26 27 27 28 28 28 28 28 29 29 29 29 30 30 30 30 30 30 30 30 30 31 31 31 31 32 32 32 31 30 30 30 30 30 30 30 29 29 29 30 29 29 28 28 27 27 28 29 29 29 30 30 29 29
19 19 20 21 22 23 23 23 23 23 24 24 25 26 26 27 27 28 28 28 28 29 29 29 29 29 30 30 30 30 30 30 30 30 30 30 31 31 32 32 32 32 32 31 30 29 30 30 30 30 30 30 29 30 30 30 29 29 28 28 28 29 29 29 29 29 29 29 29
19 20 20 21 22 23 23 23 23 24 24 25 26 26 27 27 28 28 28 28 28 29 29 29 29 30 30 30 30 30 30 30 30 30 30 30 31 31 32 32 32 32 31 30 29 29 30 30 30 31 30 30 29 29 30 30 30 29 28 28 28 29 29 30 29 29 30 30 30
19 20 21 21 22 23 23 23 24 25 25 26 26 27 27 28 28 28 28 28 28 28 28 28 29 29 30 30 30 30 30 30 30 30 30 30 31 31 32 32 32 32 31 30 30 30 30 31 31 31 31 30 29 29 30 30 29 28 28 28 28 29 29 30 29 30 30 31 31
20 20 21 21 22 23 24 24 25 25 26 26 27 27 27 27 28 28 28 28 28 28 28 28 28 29 29 29 29 30 30 30 30 30 31 31 32 32 32 32 32 32 31 30 30 30 31 31 31 31 31 30 30 30 30 29 28 28 28 28 29 29 29 30 30 31 32 32 32
19 20 21 22 23 23 24 25 26 26 26 26 27 27 27 27 27 28 28 28 28 28 28 28 29 29 29 29 29 30 30 30 30 31 31 32 32 32 33 33 33 33 32 31 30 30 30 31 31 31 31 30 30 29 29 28 28 28 28 28 28 29 29 30 31 32 32 33 33
19 20 21 23 23 24 25 25 26 26 26 26 27 27 27 28 28 28 28 28 28 28 28 29 29 29 29 29 30 30 30 30 31 31 32 32 32 33 33 34 34 34 33 31 30 30 30 30 31 31 31 30 30 29 28 27 27 27 27 28 28 29 29 30 30 31 32 32 33
20 21 22 23 24 25 25 25 26 26 26 26 27 27 28 28 28 28 28 28 28 28 28 29 29 29 29 30 30 30 30 31 31 32 32 32 32 33 33 34 35 34 33 32 30 30 30 30 31 31 30 30 29 28 28 27 26 26 27 28 28 29 29 29 30 30 31 32 33
22 22 23 24 24 25 25 25 26 26 26 27 27 27 28 28 28 28 28 27 27 27 28 28 29 29 30 30 30 31 31 31 31 32 32 32 32 33 33 34 35 34 34 32 31 30 30 30 30 30 30 29 29 28 27 26 26 26 27 28 29 29 29 29 29 30 31 32 32
23 23 23 23 24 25 25 25 26 26 27 27 28 28 28 28 28 27 27 27 27 27 28 29 29 30 30 31 31 31 32 32 32 32 32 32 32 33 33 34 34 34 34 32 31 30 30 30 30 30 29 29 29 28 27 27 27 27 27 27 28 29 29 29 29 29 30 32 32
23 23 23 23 24 24 25 25 26 26 27 27 28 28 28 28 27 27 27 27 27 27 28 29 30 30 31 31 31 32 32 33 32 32 32 32 33 33 33 33 34 34 33 32 31 29 29 29 29 29 29 29 29 28 28 27 27 27 27 26 26 26 27 28 28 28 29 30 31
23 23 23 23 24 24 25 25 26 27 27 27 27 27 27 27 27 27 27 27 28 28 29 29 30 31 31 31 31 31 32 33 33 33 33 33 33 32 32 32 33 33 32 31 30 29 29 29 29 29 29 28 29 29 29 28 26 26 26 26 26 25 26 27 28 28 28 28 29
Wind_Direction
318 316 314 314 316 320 323 324 323 321 319 317 315 312 309 306 303 301 300 299 298 297 298 297 297 297 298 298 297 296 295 295 293 292 292 291 292 292 292 292 292 292 292 292 291 290 289 287 284 281 278 275 272 270 267 266 264 262 261 259 259 258 258 257 257 257 256 255 254
318 315 313 314 317 321 322 321 318 315 312 310 308 305 302 300 299 298 298 298 297 297 297 297 297 297 296 296 296 295 294 293 292 292 292 292 292 292 293 293 293 293 292 292 292 291 290 289 287 284 281 278 275 272 269 267 265 263 261 260 259 259 259 258 258 258 258 258 257
317 315 314 314 315 315 314 311 308 306 304 302 301 300 299 298 298 298 298 298 298 298 297 296 296 296 296 295 295 294 293 292 292 292 292 292 293 293 293 293 293 293 293 293 292 291 291 290 288 286 284 281 278 275 272 270 267 264 263 261 261 260 259 259 259 260 260 259 259
318 315 313 311 309 307 305 304 303 303 302 302 303 302 302 302 301 300 300 299 299 298 297 297 297 297 296 296 295 294 293 293 292 292 293 293 293 293 293 293 293 293 293 293 292 292 291 291 290 288 287 285 282 279 277 274 272 269 266 265 263 262 261 261 261 261 261 261 261
314 312 311 309 307 304 303 303 304 305 306 307 307 306 306 305 304 302 301 300 299 299 299 299 298 298 297 296 296 295 294 294 293 293 293 293 293 294 294 294 294 293 293 293 293 292 292 291 291 290 289 287 286 283 282 280 278 275 272 270 268 267 266 265 265 265 265 264 264
313 312 312 309 306 304 303 304 305 306 307 308 308 307 307 306 304 303 301 300 300 300 300 300 299 299 298 298 297 297 296 295 295 295 295 295 294 295 295 294 294 294 294 293 293 292 292 292 291 290 289 288 287 286 285 284 283 281 279 277 274 273 271 271 270 270 270 269 268
317 316 313 309 305 304 304 305 306 307 307 307 308 307 307 306 305 303 302 301 301 301 301 301 301 301 300 300 299 299 298 298 297 297 296 296 296 295 295 295 295 294 294 294 293 293 292 292 292 291 290 289 287 286 285 284 284 284 283 282 280 279 277 276 276 276 275 274 274
323 319 314 309 306 306 307 307 307 307 307 307 307 306 306 305 304 303 303 303 303 303 303 303 303 302 302 301 301 300 300 299 299 298 297 297 297 296 296 296 295 295 294 294 293 293 293 292 291 290 289 288 287 286 285 284 283 282 283 283 283 282 281 281 280 280 279 279 279
324 319 314 310 309 309 309 308 307 307 306 306 306 306 305 305 304 304 304 304 305 304 304 304 303 303 302 302 301 301 300 300 300 299 298 298 297 297 296 296 296 295 294 294 293 293 293 292 291 289 288 287 286 285 284 284 283 282 281 282 282 282 281 281 281 281 281 281 282
323 319 315 313 312 311 310 308 307 306 306 306 305 305 305 305 305 305 305 305 305 305 304 304 304 303 303 302 301 301 300 300 300 299 299 298 297 297 296 296 295 295 294 294 293 293 292 292 291 289 288 287 286 286 285 284 284 283 282 282 282 282 282 281 280 280 281 282 282
321 318 316 315 313 312 311 309 308 307 307 306 306 306 306 306 306 306 305 305 305 304 303 303 304 303 302 302 301 301 300 300 300 299 298 298 297 296 296 295 294 294 293 293 293 293 293 292 291 289 289 288 287 287 286 286 285 285 284 284 284 283 283 282 282 281 282 282 282
321 318 317 316 315 313 312 311 310 310 309 308 308 307 307 306 306 306 305 305 304 303 303 303 303 302 301 301 301 301 300 300 299 299 298 297 296 295 295 294 294 293 293 293 293 293 292 291 291 290 289 289 288 288 288 288 287 287 286 286 285 285 284 284 284 283 283 284 283
321 320 318 317 316 315 314 313 312 312 311 310 309 308 307 306 306 305 305 304 303 303 303 303 302 301 301 301 301 300 300 299 298 298 297 296 296 295 295 294 293 293 293 293 293 292 292 291 290 290 290 289 289 289 288 288 288 287 287 287 286 285 285 285 285 285 285 285 284
322 320 319 318 317 316 315 314 314 313 312 310 309 308 307 306 306 305 305 304 303 303 303 302 302 301 301 300 300 299 299 298 298 297 296 296 295 295 294 294 293 293 293 292 292 292 291 290 290 290 289 289 289 289 288 288 287 287 287 287 286 286 286 286 286 287 287 286 285
323 321 320 319 318 317 316 315 314 313 312 310 309 308 307 306 306 306 305 304 303 302 302 302 302 301 300 300 299 299 298 298 298 297 296 296 295 295 294 294 293 293 293 292 292 291 291 290 290 290 289 289 289 289 289 288 287 287 286 286 286 286 286 287 287 287 287 287 286
324 323 322 321 320 319 318 316 315 314 313 311 310 309 308 307 307 306 305 304 303 303 302 302 301 301 300 300 299 299 298 298 298 297 296 296 295 295 294 294 293 293 293 293 292 292 291 290 290 290 290 289 289 289 289 288 287 287 286 286 286 286 286 287 287 287 287 287 286
325 325 324 323 322 320 319 318 316 315 314 313 311 310 309 308 307 307 305 304 303 303 302 301 300 300 300 300 299 299 298 298 297 296 296 295 295 295 294 294 293 293 293 293 293 292 292 291 291 290 290 289 289 289 288 288 288 287 287 287 286 286 287 287 287 287 288 287 286
327 327 326 325 323 322 320 319 318 317 315 314 313 311 310 309 308 307 306 305 303 302 301 301 300 300 299 299 299 299 298 297 297 296 295 295 295 294 294 294 293 293 293 293 293 292 292 292 292 292 291 290 290 289 289 288 288 288 287 287 287 287 287 287 288 288 288 288 287
330 329 328 326 324 323 321 320 319 317 316 315 313 312 311 310 308 307 306 305 304 303 302 301 300 300 299 299 298 298 298 297 296 296 295 295 295 294 294 294 294 294 294 293 293 293 293 293 293 293 292 291 291 290 289 289 288 288 288 288 287 287 287 287 288 288 288 287 287
331 330 328 326 325 323 322 321 319 318 317 316 314 313 312 310 309 307 306 305 304 303 302 301 300 300 299 299 299 299 298 297 297 296 296 295 295 294 294 294 294 294 294 294 294 294 294 294 294 294 293 293 292 291 290 290 289 288 288 287 287 287 287 287 288 288 287 286 286
332 329 328 326 325 323 322 322 321 320 319 317 316 314 312 311 309 308 306 305 304 303 302 301 300 300 300 300 300 299 298 298 297 296 296 295 295 295 295 295 295 295 295 295 294 294 294 295 295 295 294 294 293 292 291 291 290 289 288 288 287 287 287 288 288 287 285 284 284
332 330 328 327 326 325 324 324 323 322 320 318 316 315 313 311 309 308 306 305 304 303 302 301 301 300 300 300 300 299 299 298 297 296 296 295 295 296 296 296 296 295 295 295 295 295 295 295 295 295 295 294 294 293 293 292 291 290 290 290 290 289 289 288 288 287 285 284 284
332 330 329 329 328 328 327 326 325 323 321 318 317 315 313 311 309 308 307 306 304 303 302 302 301 301 300 300 300 299 299 299 298 297 296 296 296 296 297 297 296 296 296 296 296 296 296 297 297 296 296 296 295 295 295 294 293 292 292 292 292 292 291 290 289 288 287 287 285
332 332 331 331 331 330 328 327 325 322 320 318 316 314 312 311 309 308 307 305 304 303 303 302 301 301 301 300 300 299 299 299 298 298 298 297 297 297 298 297 297 296 296 296 296 296 297 297 297 297 297 297 297 296 296 296 295 294 293 293 293 293 293 292 291 290 289 288 287
333 333 334 333 332 331 329 326 323 320 318 316 314 313 312 310 310 308 307 306 304 304 303 302 302 302 301 301 300 300 299 299 298 298 298 298 298 298 298 298 298 297 296 296 297 297 297 296 297 298 298 299 298 298 298 297 297 296 295 294 294 294 294 294 293 292 291 289 288
334 335 335 334 332 329 327 323 321 318 316 314 313 312 311 310 309 308 307 305 305 304 303 303 303 303 302 302 301 300 299 299 298 298 299 299 299 299 299 299 298 298 298 298 298 298 298 298 299 299 299 300 300 300 299 299 298 297 297 296 295 295 295 294 295 294 293 292 290
334 334 334 333 330 326 323 321 318 316 314 313 312 311 311 310 309 307 306 305 305 304 304 304 303 303 303 302 301 300 300 299 299 299 299 299 299 299 299 299 299 299 299 300 299 299 300 300 301 301 300 300 300 300 299 299 299 298 298 297 296 296 295 295 296 296 296 294 293
333 333 331 329 326 323 320 319 317 314 313 313 312 311 309 309 308 307 306 305 305 305 305 304 304 304 303 302 301 300 300 300 300 299 299 299 299 299 300 300 300 300 300 300 301 301 301 302 302 302 301 301 300 300 299 299 300 300 299 298 297 297 297 296 295 295 295 294 293
331 330 328 325 321 319 318 317 315 313 312 311 311 310 309 308 307 307 306 306 306 306 305 305 305 304 303 302 301 300 300 300 300 300 300 300 300 300 300 300 300 300 301 301 301 302 302 302 302 302 302 301 301 301 301 300 300 300 299 298 297 297 296 294 293 293 293 292 291
328 325 322 319 317 316 315 314 313 311 311 310 309 309 309 308 308 307 307 307 306 305 305 305 305 304 302 301 301 301 300 300 300 300 300 300 300 300 300 300 300 301 301 302 302 303 303 303 303 303 303 303 303 302 301 301 300 299 298 297 296 295 294 292 290 290 290 290 289
323 319 317 315 313 313 312 312 311 310 310 309 309 309 309 308 307 307 307 306 306 305 305 305 304 303 302 301 301 300 300 300 301 301 300 300 300 301 301 301 301 302 302 303 303 304 304 304 304 304 304 304 303 302 301 301 300 298 297 295 294 293 292 291 289 289 289 290 289
317 314 312 311 310 310 311 310 310 310 310 309 309 309 308 307 307 306 306 306 306 306 306 305 304 303 303 302 301 301 301 301 301 301 301 301 301 301 301 301 302 302 303 304 304 304 304 305 305 305 305 304 303 302 301 300 299 298 296 294 293 292 291 291 289 289 290 289 288
311 309 308 307 308 309 309 310 310 310 309 309 308 308 307 307 306 306 306 307 307 306 306 305 304 303 303 302 302 302 301 301 301 301 301 302 302 302 302 302 302 303 303 304 304 305 305 305 306 305 305 304 303 302 301 300 299 297 295 293 292 292 291 290 289 289 289 288 287
308 306 306 306 307 307 308 309 309 309 309 308 308 307 307 306 306 307 307 307 307 306 305 304 303 302 302 301 301 301 302 301 301 302 302 303 303 303 302 302 302 302 303 304 304 305 305 306 306 306 305 305 303 302 301 300 297 295 293 292 292 292 291 290 289 289 288 288 287
307 306 305 305 306 307 308 309 309 309 308 307 307 306 306 306 306 307 307 307 307 306 304 303 303 302 302 301 301 302 302 302 302 303 303 304 304 303 303 302 302 302 303 303 304 305 305 306 306 306 306 305 304 302 300 298 296 295 293 292 292 292 291 290 290 289 289 288 287
307 305 304 305 305 306 307 308 308 308 307 307 306 306 307 307 307 307 307 307 306 305 304 304 303 303 302 302 303 302 302 302 303 303 304 304 304 303 303 302 302 303 303 303 304 304 305 306 306 306 306 305 303 302 300 298 296 295 295 294 293 292 291 291 290 289 288 287 286
306 305 304 304 305 306 307 307 307 307 307 306 306 306 307 307 307 307 307 307 306 305 304 304 304 303 303 303 303 303 303 303 303 304 304 304 304 303 303 302 302 303 303 303 304 304 305 306 307 307 306 305 303 301 300 298 297 296 295 295 294 293 292 290 289 289 288 287 286
305 304 304 304 305 306 306 307 307 306 306 306 306 306 306 306 306 306 307 307 306 305 304 304 304 304 304 304 304 303 303 303 303 303 303 303 303 303 302 302 302 302 303 303 304 304 305 306 307 306 306 304 303 302 300 299 297 295 294 293 292 292 291 290 289 288 287 287 287
305 304 304 304 305 305 306 306 306 306 306 306 306 306 306 306 306 306 306 306 305 304 304 304 304 304 304 304 304 304 303 303 303 303 303 303 303 302 302 301 301 301 302 303 303 304 305 306 306 306 305 304 303 302 300 298 296 294 292 290 290 290 290 290 289 287 286 287 289
305 305 304 304 304 305 305 305 305 305 306 306 306 306 306 306 305 305 305 305 304 304 304 304 303 303 304 304 304 303 303 303 303 303 303 303 302 302 302 301 301 301 302 303 303 305 305 306 306 306 305 304 302 301 299 296 294 292 290 289 288 288 289 289 289 287 286 286 288
305 305 304 304 304 305 305 305 305 306 306 306 306 306 305 305 305 305 305 305 305 304 304 304 303 303 303 303 303 302 302 302 303 303 303 303 303 302 302 301 301 301 302 303 304 305 306 306 306 305 304 302 301 300 298 295 293 291 290 289 288 287 287 288 289 288 287 286 287
Height
835 835 835 834 834 834 834 833 833 833 833 832 832 831 831 830 830 829 828 828 827 827 826 825 824 823 823 822 821 820 819 819 818 818 817 816 815 814 813 813 812 811 810 809 808 807 807 806 805 803 803 802 801 799 799 798 798 797 796 795 795 794 793 793 792 792 791 791 790
835 835 834 834 834 834 833 833 833 833 832 832 831 831 830 830 829 828 828 827 826 825 824 823 823 822 821 821 820 819 818 818 817 816 815 815 814 813 812 811 810 810 809 808 807 806 805 804 803 802 801 800 799 798 797 796 796 795 794 793 793 792 792 791 790 790 789 789 788
834 834 834 834 834 833 833 833 833 832 832 831 831 830 829 829 828 827 826 826 825 824 823 823 822 821 820 819 819 818 818 817 816 815 814 813 813 812 811 810 809 808 808 807 806 805 804 803 802 801 800 798 798 797 796 795 794 794 793 792 791 791 790 789 788 788 788 787 787
834 834 834 833 833 833 833 832 832 831 831 830 830 829 828 828 827 826 825 825 824 823 823 822 821 820 819 818 818 817 816 816 815 814 813 812 811 810 810 809 808 807 806 805 804 803 802 802 801 799 798 797 796 795 794 793 793 792 791 790 790 789 788 788 787 787 786 785 785
833 833 833 833 833 833 832 832 831 831 830 829 829 828 828 827 826 825 825 824 823 823 822 821 820 819 818 818 817 816 815 814 814 813 812 811 810 809 808 808 806 805 804 804 803 802 801 800 799 798 797 796 795 794 793 793 792 791 790 789 788 788 787 786 786 785 784 783 783
833 833 833 833 832 832 831 831 830 830 829 828 828 827 827 826 825 825 824 823 822 822 821 820 819 818 817 817 816 815 814 813 812 811 810 809 808 808 807 806 805 804 803 802 801 800 800 799 798 796 795 795 793 793 792 792 791 789 788 788 787 787 786 785 784 783 783 782 781
833 832 832 832 832 831 831 830 830 829 828 828 827 826 826 825 824 824 823 822 821 820 820 819 818 817 816 815 814 813 813 812 811 810 809 808 807 806 805 804 803 803 802 801 800 799 798 797 796 795 794 793 792 791 790 790 789 788 787 786 785 785 784 783 783 782 781 780 779
832 832 832 831 831 830 830 829 829 828 828 827 826 826 825 824 823 823 822 821 820 819 818 818 817 816 815 814 813 812 811 810 809 808 808 807 806 805 804 803 802 801 800 799 798 798 797 796 794 793 792 791 790 789 789 788 788 787 786 784 783 783 783 782 781 780 780 779 778
831 831 831 831 830 830 829 829 828 828 827 826 826 825 824 823 823 822 821 820 819 818 818 817 816 815 814 813 812 811 810 809 808 807 806 805 804 803 803 802 801 799 798 798 797 796 795 794 793 792 791 790 789 788 787 787 786 785 784 783 782 781 781 780 780 779 778 777 776
831 830 830 830 829 829 828 828 828 827 826 825 825 824 823 823 822 821 820 819 818 818 817 816 815 814 813 812 811 810 809 808 807 806 805 804 803 802 801 800 799 798 797 796 795 794 793 792 791 790 789 788 787 786 785 785 784 783 782 781 780 779 778 778 778 777 776 775 774
830 830 829 829 829 828 828 828 827 826 826 825 824 823 823 822 821 820 819 818 817 816 815 815 814 813 812 810 809 809 808 807 806 805 804 803 802 801 800 799 798 797 795 794 794 793 792 790 789 788 787 786 786 785 784 783 783 781 780 779 778 778 777 776 776 775 775 774 773
829 829 829 828 828 828 827 827 826 825 825 824 823 823 822 821 820 819 818 817 816 815 814 813 813 812 810 809 808 807 806 805 804 803 802 801 800 799 798 797 796 795 794 793 792 791 790 789 788 786 785 784 784 783 782 781 781 780 778 777 777 776 775 773 773 773 773 772 771
829 828 828 828 828 827 827 826 825 824 824 823 822 822 821 820 819 818 817 816 815 813 813 812 811 810 809 808 807 806 805 804 803 802 801 800 798 798 797 795 794 793 792 791 790 789 788 787 786 785 784 783 782 782 781 780 779 778 777 775 775 774 773 772 771 771 771 770 769
828 828 828 827 827 826 826 825 824 823 823 822 821 820 819 818 818 817 816 814 813 812 811 810 809 809 808 807 806 805 804 803 802 800 799 798 797 796 795 793 793 792 791 789 788 788 787 786 784 783 782 781 780 779 779 778 777 776 775 774 773 772 771 770 769 769 768 768 767
828 827 827 826 826 825 824 824 823 822 822 821 820 819 818 817 816 815 814 813 812 811 810 809 808 807 806 805 804 803 802 801 800 799 798 796 795 794 793 792 791 790 789 788 787 786 785 784 783 782 781 779 778 777 777 776 775 774 773 772 771 770 769 768 767 767 767 766 764
827 826 826 825 825 824 823 823 822 821 820 819 818 818 816 815 814 813 813 812 810 809 808 808 806 805 804 804 803 802 801 799 798 797 796 794 793 792 791 790 789 788 787 786 785 783 783 782 781 780 779 778 776 775 774 774 773 772 771 770 769 768 767 766 766 765 764 763 762
826 825 825 824 823 823 822 821 821 820 819 818 817 816 815 814 813 812 811 810 809 808 807 806 805 804 803 802 801 800 799 798 797 795 794 793 792 790 789 788 787 786 785 784 783 781 780 779 779 778 777 776 775 773 773 772 771 770 769 768 767 766 765 764 764 763 762 761 760
825 824 823 823 822 822 821 820 819 818 817 816 815 814 813 813 812 810 809 809 808 807 805 804 803 803 802 800 799 798 798 796 795 794 793 791 790 789 788 786 785 784 783 782 781 779 778 777 777 776 775 774 773 772 771 769 768 767 767 766 765 764 763 762 762 761 760 759 758
823 823 822 822 821 820 819 818 818 817 816 815 814 813 812 811 810 809 808 807 806 805 804 803 802 801 800 799 798 797 796 795 793 792 791 790 788 787 786 784 783 782 781 780 779 778 777 776 775 774 773 772 771 769 768 767 766 765 764 763 762 762 761 760 759 759 758 757 757
823 822 821 821 820 819 818 817 816 815 814 813 812 811 810 809 808 808 807 806 805 804 803 802 800 799 798 797 796 795 794 793 792 790 789 788 787 785 784 783 782 780 779 778 777 776 775 774 773 772 771 770 768 767 766 765 764 763 762 761 760 759 758 758 757 757 756 755 754
821 821 820 819 818 818 817 816 815 814 813 812 811 810 809 808 807 806 805 804 803 802 801 800 799 798 796 795 794 793 792 791 790 789 787 786 785 783 782 781 780 779 778 777 775 774 773 772 771 770 769 767 766 765 764 762 762 760 759 758 758 757 756 756 755 754 753 752 752
820 819 819 818 817 816 815 814 813 812 811 810 809 808 808 807 806 805 804 803 802 801 799 798 797 796 795 794 793 791 790 789 788 787 786 784 783 782 781 780 778 777 776 775 773 773 771 770 769 768 767 765 764 762 762 760 759 757 757 756 755 754 754 753 752 752 751 750 749
819 818 818 817 816 815 814 813 812 811 810 809 808 807 806 805 804 803 802 801 800 799 798 797 796 794 793 792 791 790 788 787 786 785 783 783 781 780 779 778 777 775 774 773 772 771 769 768 767 766 765 763 762 760 759 758 757 755 754 753 752 752 751 751 750 749 748 748 747
818 817 816 815 814 813 812 811 810 809 808 808 807 806 805 803 803 801 800 799 798 797 796 795 794 793 792 791 789 788 787 785 784 783 781 781 779 778 777 776 775 774 773 771 770 769 768 767 765 764 763 762 760 758 757 756 755 753 752 751 750 749 749 748 748 747 747 745 745
816 815 814 813 813 812 811 810 809 808 807 806 805 804 803 802 801 800 799 798 797 796 794 793 792 791 790 789 788 787 785 784 783 781 779 778 778 777 775 774 773 772 771 769 768 768 767 766 765 763 761 760 758 757 756 754 753 752 751 750 748 747 746 745 745 745 744 743 742
814 813 813 812 811 810 809 809 808 807 806 805 804 803 802 801 799 798 797 796 795 794 793 792 791 789 788 787 786 785 783 782 781 779 778 777 775 774 773 773 771 770 768 767 767 766 765 764 763 762 760 759 757 755 754 752 751 750 749 748 747 746 745 743 742 742 741 741 740
813 812 811 811 810 809 808 808 807 806 804 803 802 801 800 799 798 797 796 794 793 792 791 790 789 788 787 786 784 783 782 780 779 778 777 775 774 773 771 770 769 768 767 766 765 764 764 762 761 760 759 757 756 754 752 751 749 748 747 746 745 744 743 742 741 740 739 738 737
811 811 810 809 808 808 807 806 805 804 803 802 801 800 798 798 796 795 794 793 792 791 790 788 788 787 785 784 783 781 780 778 777 776 775 773 772 771 770 768 767 766 765 765 764 763 762 761 759 758 757 756 754 752 751 749 747 746 745 744 743 742 742 740 739 738 737 735 734
810 809 808 808 807 806 806 805 804 803 802 800 799 798 797 796 795 794 793 791 790 789 788 787 786 785 783 782 781 779 778 777 776 774 773 772 770 769 768 767 766 764 763 763 762 761 760 759 757 756 755 754 752 751 749 747 746 745 743 742 742 741 740 738 737 736 734 733 732
808 808 807 807 806 805 804 803 802 801 800 799 798 797 796 794 793 792 791 790 789 788 787 786 784 783 782 780 779 778 776 775 774 773 772 770 768 767 766 765 764 762 762 761 760 759 758 757 755 754 753 752 751 749 747 746 744 743 742 741 739 739 738 737 735 734 732 731 730
808 807 806 805 804 803 803 802 801 800 799 798 797 795 794 793 792 791 790 788 787 786 785 784 783 781 780 778 777 776 774 773 772 771 770 768 767 765 764 763 762 761 760 759 758 757 756 755 753 752 751 750 749 747 746 744 743 742 740 739 737 737 736 734 733 732 730 729 728
806 806 805 804 803 802 801 800 799 798 797 796 795 794 793 792 791 789 788 787 786 784 783 782 781 779 778 777 775 774 773 772 770 769 768 767 765 764 762 761 760 759 758 757 757 755 754 753 752 750 749 748 747 745 744 742 741 740 738 737 736 735 733 732 731 730 728 727 726
805 804 803 803 801 800 800 799 798 797 796 795 794 793 791 790 789 788 787 786 784 783 782 780 779 778 776 775 773 772 771 770 769 767 766 765 764 762 760 759 758 757 756 756 755 753 752 751 750 748 747 746 745 743 742 740 739 738 736 735 734 732 731 730 729 727 726 725 724
803 803 802 801 800 799 798 798 797 796 794 793 792 791 790 789 787 786 785 784 783 782 780 779 778 776 775 773 772 771 769 768 767 766 764 763 762 760 759 757 756 755 754 754 753 752 750 749 748 747 745 744 742 741 740 738 737 736 734 733 732 730 729 728 727 725 724 722 721
802 801 800 799 799 798 797 796 795 794 793 792 791 789 788 788 786 785 783 782 781 780 778 777 776 775 773 772 771 770 768 766 765 764 763 762 760 758 757 755 754 753 752 752 751 750 748 747 746 745 743 742 740 739 737 736 735 733 732 731 729 728 727 726 724 723 721 720 719
801 800 799 798 797 797 796 795 793 793 792 790 789 788 787 786 784 783 782 781 779 778 777 775 774 773 772 770 769 768 767 765 763 762 761 760 758 757 755 753 752 751 750 750 749 748 747 745 744 742 741 740 738 737 735 734 732 731 730 728 727 726 724 723 722 720 719 717 716
800 799 798 797 796 795 794 793 792 791 790 789 788 787 785 784 783 782 781 779 778 776 775 774 773 771 770 769 767 766 765 764 762 761 759 758 757 755 753 751 750 749 748 747 747 746 745 743 742 741 740 738 736 735 733 732 730 729 728 726 725 723 722 721 719 718 716 715 713
799 798 797 796 795 794 793 792 791 790 788 787 786 785 784 783 781 780 779 778 777 775 773 772 771 770 768 767 766 764 763 762 761 759 758 756 755 754 752 749 747 747 746 746 745 744 743 742 740 739 738 737 735 733 732 730 728 727 726 724 722 721 720 718 717 715 713 712 711
798 797 796 794 793 792 791 790 789 788 787 786 785 783 782 781 780 778 778 777 775 774 772 771 769 768 767 765 764 762 761 760 759 758 757 755 753 752 751 748 746 744 744 743 743 742 741 740 738 737 736 735 733 732 730 728 727 725 723 722 720 718 717 716 714 713 711 709 708
796 795 794 793 792 791 790 789 788 787 786 785 783 782 781 780 778 777 776 775 774 773 771 769 768 766 765 764 762 761 759 757 757 756 755 753 752 750 749 747 745 743 742 742 741 740 739 738 737 736 734 733 732 730 728 726 724 722 721 719 718 716 714 713 712 710 708 707 705
795 794 793 792 791 790 789 788 786 785 784 783 782 781 779 778 777 776 774 773 772 771 770 768 766 765 764 762 761 759 757 756 754 754 753 752 750 748 747 745 743 741 740 740 739 738 737 736 735 734 733 731 730 728 726 724 722 721 719 717 716 714 712 710 709 707 706 704 703